| time (UTC) | temp F | wind direction | speed MPH | gust MPH | rain 1hr in | rain 24hr in | rain mn in | humidity % | barometer mb |
| 20260901134134 | 81 | 315 | 2.0 | 7.0 | 0.00 | 0.00 | 0.00 | 89 | 1015.9 |
| 20260831210515 | 82 | 315 | 1.0 | 4.0 | 0.00 | 1.10 | 0.64 | 71 | 1018.6 |
| 20260831205536 | 82 | 315 | 1.0 | 3.0 | 0.00 | 1.10 | 0.64 | 75 | 1018.6 |
| 20260831204516 | 81 | 315 | 1.0 | 4.0 | 0.00 | 1.10 | 0.64 | 76 | 1018.5 |
| 20260831203516 | 81 | 0.0 | 1.0 | 0.00 | 1.10 | 0.64 | 77 | 1018.7 | |
| 20260831202536 | 81 | 315 | 1.0 | 3.0 | 0.00 | 1.10 | 0.64 | 77 | 1018.7 |
| 20260831201515 | 80 | 293 | 2.0 | 5.0 | 0.00 | 1.10 | 0.64 | 79 | 1018.8 |
| 20260831200536 | 80 | 0.0 | 1.0 | 0.00 | 1.10 | 0.64 | 81 | 1018.8 | |
| 20260831195515 | 80 | 293 | 1.0 | 2.0 | 0.00 | 1.10 | 0.64 | 77 | 1018.8 |
| 20260831194516 | 80 | 0.0 | 2.0 | 0.00 | 1.10 | 0.64 | 77 | 1018.9 | |
| 20260831193537 | 81 | 293 | 1.0 | 3.0 | 0.00 | 1.10 | 0.64 | 78 | 1019.2 |
| 20260831192516 | 81 | 293 | 1.0 | 3.0 | 0.00 | 1.10 | 0.64 | 76 | 1019.4 |
| 20260831191515 | 81 | 293 | 2.0 | 4.0 | 0.00 | 1.10 | 0.64 | 76 | 1019.5 |
| 20260831190515 | 81 | 315 | 1.0 | 3.0 | 0.00 | 1.10 | 0.64 | 75 | 1019.7 |
| 20260831185516 | 81 | 293 | 1.0 | 4.0 | 0.00 | 1.10 | 0.64 | 73 | 1019.6 |
| 20260831184516 | 80 | 293 | 1.0 | 5.0 | 0.00 | 1.10 | 0.64 | 77 | 1019.5 |
| 20260831183515 | 80 | 293 | 1.0 | 3.0 | 0.00 | 1.10 | 0.64 | 77 | 1019.4 |
| 20260831182515 | 80 | 0.0 | 2.0 | 0.00 | 1.10 | 0.64 | 77 | 1019.5 | |
| 20260831181515 | 80 | 293 | 2.0 | 5.0 | 0.00 | 1.10 | 0.64 | 76 | 1019.7 |
| 20260831180516 | 80 | 293 | 1.0 | 3.0 | 0.00 | 1.10 | 0.64 | 78 | 1019.6 |
| 20260831175516 | 80 | 293 | 2.0 | 3.0 | 0.00 | 1.10 | 0.64 | 77 | 1019.6 |
| 20260831174538 | 80 | 0.0 | 3.0 | 0.00 | 1.10 | 0.64 | 76 | 1019.8 | |
| 20260831173515 | 80 | 293 | 1.0 | 2.0 | 0.00 | 1.10 | 0.64 | 76 | 1019.9 |
| 20260831172517 | 80 | 203 | 2.0 | 4.0 | 0.00 | 1.10 | 0.64 | 77 | 1019.9 |
| 20260831171537 | 79 | 0.0 | 2.0 | 0.00 | 1.10 | 0.64 | 75 | 1019.9 | |
| 20260831170517 | 79 | 203 | 2.0 | 4.0 | 0.00 | 1.10 | 0.64 | 73 | 1019.9 |
| 20260831165517 | 79 | 203 | 2.0 | 4.0 | 0.00 | 1.10 | 0.64 | 77 | 1019.9 |
| 20260831164517 | 79 | 248 | 2.0 | 4.0 | 0.00 | 1.10 | 0.64 | 75 | 1020.1 |
| 20260831163538 | 79 | 270 | 1.0 | 3.0 | 0.00 | 1.10 | 0.64 | 75 | 1020.0 |
| 20260831162517 | 79 | 225 | 1.0 | 5.0 | 0.00 | 1.10 | 0.64 | 82 | 1020.1 |
| 20260831161518 | 78 | 225 | 2.0 | 4.0 | 0.00 | 1.10 | 0.64 | 78 | 1020.0 |
| 20260831160538 | 77 | 135 | 1.0 | 3.0 | 0.00 | 1.10 | 0.64 | 80 | 1020.2 |
| 20260831155517 | 76 | 135 | 1.0 | 3.0 | 0.00 | 1.10 | 0.64 | 82 | 1020.1 |
| 20260831154517 | 76 | 135 | 1.0 | 3.0 | 0.00 | 1.10 | 0.64 | 82 | 1020.1 |
| 20260831153517 | 76 | 135 | 2.0 | 4.0 | 0.00 | 1.10 | 0.64 | 82 | 1019.9 |
| 20260831152537 | 76 | 0.0 | 1.0 | 0.00 | 1.10 | 0.64 | 84 | 1020.0 | |
| 20260831151517 | 76 | 158 | 1.0 | 3.0 | 0.00 | 1.10 | 0.64 | 83 | 1020.2 |
| 20260831150517 | 75 | 158 | 1.0 | 4.0 | 0.00 | 1.10 | 0.64 | 85 | 1020.2 |
| 20260831145517 | 75 | 158 | 2.0 | 3.0 | 0.00 | 1.10 | 0.64 | 84 | 1020.2 |
| 20260831144517 | 75 | 135 | 1.0 | 3.0 | 0.00 | 1.10 | 0.64 | 86 | 1020.2 |
| 20260831144018 | 75 | 135 | 1.0 | 3.0 | 0.00 | 1.10 | 0.64 | 87 | 1020.3 |
| 20260831143058 | 75 | 135 | 1.0 | 3.0 | 0.00 | 1.10 | 0.64 | 87 | 1020.2 |
| 20260831142611 | 74 | 135 | 2.0 | 4.0 | 0.00 | 1.10 | 0.66 | 87 | 1020.2 |
| 20260831140517 | 73 | 180 | 1.0 | 4.0 | 0.00 | 1.10 | 0.64 | 92 | 1020.2 |
| 20260831135517 | 72 | 180 | 1.0 | 3.0 | 0.00 | 1.10 | 0.64 | 94 | 1020.2 |
| 20260831134517 | 72 | 180 | 1.0 | 2.0 | 0.00 | 1.10 | 0.64 | 95 | 1020.1 |